[Iaude] MPEC M31: 2024 MK [a=2.24,e=0.55,i=8.5,H=21.5,PHA]

mpec at cfa.harvard.edu mpec at cfa.harvard.edu
Wed Jun 19 11:38:10 EDT 2024


M.P.E.C. 2024-M31                                 Issued 2024 June 19, 15:36 UT

     The Minor Planet Electronic Circulars contain information on unusual
         minor planets, routine data on comets and natural satellites,
         and occasional editorial announcements.  They are published
    on behalf of Division F of the International Astronomical Union by the
          Minor Planet Center, Smithsonian Astrophysical Observatory,
                          Cambridge, MA 02138, U.S.A.
			  
             Prepared using the Tamkin Foundation Computer Network

                              MPC at CFA.HARVARD.EDU
            URL https://www.minorplanetcenter.net/    ISSN 1523-6714

                                    2024 MK                                     


Observations:
     K24M00K  C2024 05 07.31726913 44 12.047-43 05 03.81         21.01GVEM031F51
     K24M00K  C2024 05 07.31923113 44 11.854-43 05 05.06         20.60GVEM031F51
     K24M00K  C2024 05 07.32510213 44 11.307-43 05 08.71         21.26GVEM031F51
     K24M00K  C2024 05 07.32704413 44 11.125-43 05 09.67         20.43GVEM031F51
     K24M00K  C2024 05 07.33289513 44 10.570-43 05 13.04         20.38GVEM031F51
     K24M00K* C2024 06 16.81471013 04 35.054-45 21 41.29         18.10oVEM031M22
     K24M00K  C2024 06 16.81771713 04 34.982-45 21 40.46         17.27oVEM031M22
     K24M00K  C2024 06 16.82289213 04 34.771-45 21 40.14         17.59oVEM031M22
     K24M00K  C2024 06 16.83320213 04 34.375-45 21 38.63         17.45oVEM031M22
     K24M00K KB2024 06 18.96923013 05 35.028-45 27 00.21         18.1 VZEM031Y05
     K24M00K KB2024 06 18.99967413 05 33.783-45 26 58.14         17.0 VZEM031Y05
     K24M00K KB2024 06 19.02966213 05 32.784-45 26 53.04         16.9 VZEM031Y05
     K24M00K KC2024 06 19.44038 13 05 55.38 -45 27 46.0          17.6 VqEM031E23
     K24M00K KC2024 06 19.44212 13 05 55.35 -45 27 46.3          17.4 VqEM031E23
     K24M00K KC2024 06 19.45600 13 05 54.87 -45 27 45.7          17.2 VqEM031E23
     K24M00K KC2024 06 19.45948 13 05 54.77 -45 27 45.3          16.8 VqEM031E23
     K24M00K KC2024 06 19.46990 13 05 54.66 -45 27 44.6          17.0 VqEM031E23
     K24M00K KC2024 06 19.47336 13 05 54.59 -45 27 41.7          17.3 VqEM031E23

Observer details:
E23 Arcadia.  Observer A. Hidas.  0.35-m f/1.9 reflector + CCD.
F51 Pan-STARRS 1, Haleakala.  Observers J. Herman, T. Lowe, P. Minguez, A.
    Schultz, I. Smith.  Measurers K. Chambers, T. de Boer, J. Fairlamb, H.
    Gao, M. Huber, C.-C. Lin, E. Magnier, Y. Ramanjooloo, R. Wainscoat, R.
    Weryk.  1.8-m Ritchey-Chretien + CCD.
M22 ATLAS South Africa, Sutherland.  Observers L. Denneau, R. Siverd, J.
    Tonry, H. Weiland.  Measurers L. Denneau, N. Erasmus, A. Fitzsimmons, J.
    Robinson, R. Siverd, J. Tonry, H. Weiland.  0.5-m Reflector + CCD.
Y05 SONEAR Wykrota-CEAMIG, Serra da Piedade.  Observers C. Jacques, A.
    Caetano, E. Pimentel.  Measurer C. Jacques.  0.45-m f/2.9 reflector + CMO.

Orbital elements:
2024 MK                                             PHA, Earth MOID = 0.0018 AU
Epoch 2024 Mar. 31.0 TT = JDT 2460400.5                 MPC                     
M 330.15739              (2000.0)            P               Q                  
n   0.29406065     Peri.   13.19299     +0.35768314     +0.92238054             
a   2.2396394      Node   277.91629     -0.86959898     +0.27205356             
e   0.5493917      Incl.    8.46872     -0.34038271     +0.27422800             
P   3.35           H   21.55          G   0.15           U   8                  
Residuals in seconds of arc
240507 F51  0.1+  0.1+    240616 M22  0.2-  0.2+    240619 E23  0.4+  0.1+
240507 F51  0.0   0.0     240616 M22  0.0   0.1-    240619 E23  0.6+  0.2-
240507 F51  0.0   0.2-    240616 M22  0.4+  0.1+    240619 E23  0.7-  0.5-
240507 F51  0.0   0.0     240618 Y05  0.3+  0.2+    240619 E23  0.9-  0.4-
240507 F51  0.1-  0.0     240618 Y05  0.0   0.0     240619 E23  0.4+  1.0-
240616 M22  0.8-  0.4-    240619 Y05  0.2-  0.4-    240619 E23  0.4+  1.5+

Ephemeris:
2024 MK                  a,e,i = 2.24, 0.55, 8                   q = 1.0092
Date    TT    R. A. (2000) Decl.     Delta      r    Elong.  Phase     V
2024 05 20    13 26 54.6 -44 31 18   0.2195  1.1924   141.9    31.6    20.0
...
2024 06 04    13 09 42.8 -45 11 07   0.1362  1.1075   130.3    44.3    19.1
...
2024 06 12    13 04 52.0 -45 16 13   0.09375 1.0709   124.1    51.7    18.5
...
2024 06 18    13 05 05.3 -45 23 35   0.06197 1.0483   119.9    57.1    17.7
2024 06 19    13 05 40.1 -45 26 02   0.05667 1.0450   119.3    58.0    17.5
2024 06 20    13 06 29.6 -45 29 07   0.05136 1.0418   118.8    58.8    17.3
...
2024 06 26    13 26 01.1 -46 21 57   0.01942 1.0257   117.9    61.2    15.2
...
2024 07 04    00 36 15.9 +43 49 44   0.02357 1.0118    77.2   101.5    17.1
...
2024 07 19    00 58 35.8 +45 10 44   0.1019  1.0117    84.6    89.7    19.8

A. U. Tomatic                (C) Copyright 2024 MPC           M.P.E.C. 2024-M31





More information about the Iaude mailing list